EW8155 Weather Reports


time (UTC)temp
F
wind
direction
speed
knots
gust
knots
rain 1hr
in
rain 24hr
in
rain mn
in
humidity
%
barometer
mb
20260509043041 63 275 6.1 10.4 0.00 0.11 0.03 83 1001.2
20260509041534 63 299 2.6 9.6 0.00 0.11 0.03 83 1001.3
20260509040034 64 279 5.2 11.3 0.00 0.11 0.03 80 1001.3
20260509034528 64 280 5.2 10.4 0.00 0.11 0.03 80 1001.5
20260509033028 65 305 6.1 13.9 0.00 0.11 0.03 80 1001.7
20260509031527 65 281 6.1 13.0 0.00 0.11 0.03 79 1001.9
20260509030026 66 279 5.2 10.4 0.00 0.11 0.03 79 1002.0
20260509024526 66 290 4.3 13.9 0.00 0.11 0.03 78 1001.9
20260509023026 65 284 7.0 12.2 0.00 0.11 0.03 77 1001.9
20260509021525 68 279 7.0 13.0 0.00 0.11 0.03 72 1001.8
20260509020024 67 281 3.5 9.6 0.00 0.11 0.03 75 1001.7
20260509014527 68 288 6.1 13.0 0.00 0.11 0.03 72 1001.9
20260509013022 67 297 5.2 12.2 0.00 0.11 0.03 76 1002.0
20260509011519 66 254 5.2 9.6 0.00 0.11 0.03 75 1002.2
20260509010025 68 277 6.1 13.9 0.00 0.11 0.03 74 1002.3
20260509004521 67 273 7.8 12.2 0.00 0.11 0.03 74 1002.6
20260509003014 67 302 5.2 13.9 0.00 0.11 0.03 77 1002.8
20260509001509 66 271 3.5 13.9 0.00 0.11 0.03 78 1003.2
20260509000004 67 333 7.8 14.8 0.00 0.11 0.03 78 1003.4
20260508234501 66 253 8.7 13.9 0.00 0.11 0.03 80 1003.8
20260508233115 66 311 7.0 12.2 0.00 0.11 0.03 81 1004.1
20260508231600 67 297 3.5 10.4 0.00 0.11 0.03 82 1004.1
20260508230055 66 265 6.1 12.2 0.00 0.11 0.03 81 1004.3
20260508224556 65 284 5.2 12.2 0.00 0.11 0.03 82 1004.4
20260508223050 65 355 4.3 11.3 0.00 0.11 0.03 84 1004.5
20260508221546 64 293 5.2 10.4 0.00 0.11 0.03 85 1004.5
20260508220050 63 312 2.6 9.6 0.00 0.11 0.03 85 1004.7
20260508214546 64 281 1.7 7.8 0.00 0.11 0.03 86 1004.7
20260508213042 63 312 5.2 9.6 0.00 0.11 0.03 86 1004.7
20260508211540 62 299 2.6 7.8 0.00 0.11 0.03 89 1004.6
20260508210037 62 267 3.5 7.8 0.00 0.11 0.03 91 1004.7
20260508204537 61 312 3.5 7.0 0.00 0.11 0.03 92 1004.7
20260508203034 60 321 1.7 5.2 0.00 0.11 0.03 92 1004.6
20260508201527 60 315 2.6 7.0 0.00 0.11 0.03 92 1004.5
20260508200032 59 319 0.0 3.5 0.01 0.11 0.03 92 1004.5
20260508194526 58 315 0.9 4.3 0.01 0.11 0.03 92 1004.4
20260508193026 58 320 0.9 4.3 0.01 0.11 0.03 92 1004.3
20260508191524 59 290 1.7 5.2 0.01 0.11 0.03 92 1004.3
20260508190024 59 285 2.6 10.4 0.00 0.10 0.02 93 1004.3
20260508184524 59 271 0.0 3.5 0.00 0.10 0.02 92 1004.1
20260508183023 59 274 1.7 5.2 0.00 0.10 0.02 92 1004.0
20260508181527 59 280 0.0 3.5 0.00 0.10 0.02 92 1004.0
20260508180020 59 292 0.0 2.6 0.00 0.10 0.02 92 1003.9
20260508174520 59 294 0.0 2.6 0.00 0.10 0.02 92 1003.9
20260508173019 59 279 0.9 5.2 0.00 0.10 0.02 92 1003.8
20260508171523 59 286 0.0 4.3 0.00 0.10 0.02 92 1003.9
20260508170019 59 306 0.0 0.0 0.00 0.10 0.02 92 1003.8
20260508164518 59 294 0.9 4.3 0.00 0.10 0.02 92 1003.8
20260508163017 59 275 0.0 3.5 0.00 0.10 0.02 92 1003.9
20260508161525 59 317 0.0 3.5 0.01 0.10 0.02 92 1004.0
20260508160012 59 298 0.0 2.6 0.01 0.10 0.02 92 1004.1
20260508154511 59 310 0.0 7.0 0.01 0.10 0.02 92 1004.0
20260508153017 59 319 2.6 8.7 0.01 0.10 0.02 92 1004.1
20260508151507 59 286 2.6 7.8 0.00 0.09 0.02 92 1004.3
20260508150010 59 283 1.7 6.1 0.00 0.09 0.02 92 1004.4
20260508144509 59 286 1.7 4.3 0.00 0.09 0.02 92 1004.4
20260508143005 59 300 0.0 7.0 0.00 0.09 0.02 92 1004.3
20260508141502 59 286 1.7 7.0 0.00 0.09 0.02 92 1004.5
20260508140119 59 309 0.9 4.3 0.00 0.09 0.02 92 1004.7
20260508134559 59 323 0.9 5.2 0.00 0.09 0.02 92 1004.8
20260508133104 59 317 1.7 5.2 0.00 0.09 0.02 92 1004.9
20260508131557 59 317 1.7 6.1 0.01 0.09 0.02 92 1004.9
20260508130055 59 317 1.7 7.0 0.02 0.09 0.02 92 1004.7
20260508124554 59 282 0.9 6.1 0.03 0.09 0.02 91 1005.0
20260508123052 59 297 2.6 7.0 0.03 0.09 0.02 91 1005.1
20260508121549 59 282 4.3 11.3 0.04 0.09 0.01 91 1005.5
20260508120051 59 257 6.1 10.4 0.06 0.08 0.00 90 1005.6
20260508114543 60 274 5.2 13.9 0.05 0.06 0.06 89 1005.8
20260508113040 61 272 6.1 15.6 0.05 0.06 0.06 89 1005.2
20260508111540 65 313 2.6 7.8 0.03 0.05 0.05 90 1005.0
20260508110036 65 333 5.2 13.0 0.00 0.02 0.02 90 1005.0
20260508104531 65 342 4.3 12.2 0.00 0.02 0.02 89 1005.4
20260508103041 65 334 4.3 12.2 0.00 0.02 0.02 88 1005.4
20260508101528 65 5 5.2 13.0 0.00 0.02 0.02 87 1005.5
20260508100032 66 10 5.2 10.4 0.00 0.02 0.02 87 1005.7
20260508094512 66 350 6.1 12.2 0.00 0.02 0.02 87 1005.9
20260508093012 65 355 5.2 9.6 0.00 0.02 0.02 86 1006.1
20260508091514 65 323 6.1 11.3 0.00 0.02 0.02 86 1006.3
20260508090009 65 5 4.3 9.6 0.00 0.02 0.02 86 1006.2
20260508084507 65 325 4.3 9.6 0.00 0.02 0.02 86 1006.7
20260508083105 65 360 3.5 12.2 0.00 0.02 0.02 86 1006.8
20260508081504 65 331 3.5 10.4 0.01 0.02 0.02 86 1007.0
20260508080003 65 347 3.5 12.2 0.01 0.02 0.02 87 1007.2
20260508074502 64 355 5.2 12.2 0.01 0.02 0.02 88 1007.5
20260508073001 64 355 6.1 15.6 0.01 0.02 0.02 88 1007.9
20260508071501 65 318 4.3 13.0 0.00 0.01 0.01 87 1007.7
20260508070100 65 344 6.1 11.3 0.00 0.01 0.01 86 1007.6
20260508064559 65 348 6.1 12.2 0.00 0.01 0.01 87 1007.4
20260508063100 65 355 5.2 13.0 0.01 0.01 0.01 87 1007.1
20260508061605 64 54 4.3 13.0 0.01 0.01 0.01 88 1007.2
20260508060120 64 343 5.2 9.6 0.01 0.01 0.01 88 1007.5
20260508054640 64 329 4.3 12.2 0.01 0.01 0.01 88 1007.7
20260508053056 65 355 4.3 10.4 0.00 0.00 0.00 87 1007.7
20260508051551 65 26 7.0 12.2 0.00 0.00 0.00 86 1008.2
20260508050051 65 339 5.2 12.2 0.00 0.00 0.00 86 1008.4
20260508044549 65 5 6.1 11.3 0.00 0.00 0.00 86 1008.7